timestamp,surface_pressure_avg,surface_temp_avg,battery_voltage,lat,long
2023-05-28 13:19:00+00:00,231.9381,5.5,13.68,47.84626,-54.09684
2023-05-28 13:29:00+00:00,233.6498,5.5,13.68,47.84626,-54.09684
2023-05-28 13:39:00+00:00,235.1781,5.5,13.68,47.84626,-54.09684
2023-05-28 13:49:00+00:00,233.8097,5.5,13.68,47.84626,-54.09684
2023-05-28 13:59:00+00:00,234.7114,5.49,13.68,47.84626,-54.09684
2023-05-28 14:09:00+00:00,238.2231,5.43,13.68,47.84626,-54.09684
2023-05-28 14:19:00+00:00,241.7548,5.4,13.84,47.84626,-54.09684
2023-05-28 14:29:00+00:00,242.6097,5.3,13.84,47.84626,-54.09684
2023-05-28 14:39:00+00:00,244.2214,5.3,13.84,47.84626,-54.09684
2023-05-28 14:49:00+00:00,249.6914,5.2,13.84,47.84626,-54.09684
2023-05-28 14:59:00+00:00,252.7231,5.1,13.84,47.84626,-54.09684
2023-05-28 15:09:00+00:00,254.1164,5.1,13.84,47.84626,-54.09684
2023-05-28 15:19:00+00:00,257.8014,5.1,14.16,47.84626,-54.09684
2023-05-28 15:29:00+00:00,266.2548,5.1,14.16,47.84626,-54.09684
2023-05-28 15:39:00+00:00,270.4514,5.1,14.16,47.84626,-54.09684
2023-05-28 15:49:00+00:00,272.9331,5.19,14.16,47.84626,-54.09684
2023-05-28 15:59:00+00:00,276.5564,5.26,14.16,47.84626,-54.09684
2023-05-28 16:09:00+00:00,286.563,5.2,14.16,47.84626,-54.09684
2023-05-28 16:19:00+00:00,288.3781,5.2,14.0,47.84626,-54.09684
2023-05-28 16:29:00+00:00,289.1663,5.2,14.0,47.84626,-54.09684
2023-05-28 16:39:00+00:00,293.5214,5.2,14.0,47.84626,-54.09684
2023-05-28 16:49:00+00:00,303.2863,5.23,14.0,47.84626,-54.09684
2023-05-28 16:59:00+00:00,304.178,5.2,14.0,47.84626,-54.09684
2023-05-28 17:09:00+00:00,302.1597,5.2,14.0,47.84626,-54.09684
2023-05-28 17:19:00+00:00,304.1097,5.2,13.6,47.84626,-54.09684
2023-05-28 17:29:00+00:00,309.9113,5.2,13.6,47.84626,-54.09684
2023-05-28 17:39:00+00:00,311.9097,5.2,13.6,47.84626,-54.09684
2023-05-28 17:49:00+00:00,311.1813,5.2,13.6,47.84626,-54.09684
2023-05-28 17:59:00+00:00,312.9263,5.2,13.6,47.84626,-54.09684
2023-05-28 18:09:00+00:00,318.1296,5.2,13.6,47.84626,-54.09684
2023-05-28 18:19:01+00:00,313.5413,5.2,13.37,47.84626,-54.09684
2023-05-28 18:29:01+00:00,310.46299999999997,5.3,13.37,47.84626,-54.09684
2023-05-28 18:39:01+00:00,312.1897,5.31,13.37,47.84626,-54.09684
2023-05-28 18:49:01+00:00,313.0297,5.3,13.37,47.84626,-54.09684
2023-05-28 18:59:01+00:00,307.3914,5.24,13.37,47.84626,-54.09684
2023-05-28 19:09:01+00:00,306.768,5.3,13.37,47.84626,-54.09684
2023-05-28 19:19:00+00:00,309.2797,5.3,13.53,47.84626,-54.09684
2023-05-28 19:29:00+00:00,305.7646,5.33,13.53,47.84626,-54.09684
2023-05-28 19:39:00+00:00,302.323,5.4,13.53,47.84626,-54.09684
2023-05-28 19:49:00+00:00,303.9464,5.42,13.53,47.84626,-54.09684
2023-05-28 19:59:00+00:00,301.743,5.5,13.53,47.84626,-54.09684
2023-05-28 20:09:00+00:00,292.748,5.6,13.53,47.84626,-54.09684
2023-05-28 20:19:01+00:00,291.8847,5.6,13.44,47.84626,-54.09684
2023-05-28 20:29:01+00:00,290.4747,5.6,13.44,47.84626,-54.09684
2023-05-28 20:39:01+00:00,282.5131,5.6,13.44,47.84626,-54.09684
2023-05-28 20:49:01+00:00,276.9231,5.6,13.44,47.84626,-54.09684
2023-05-28 20:59:01+00:00,279.4797,5.6,13.44,47.84626,-54.09684
2023-05-28 21:09:01+00:00,276.098,5.71,13.44,47.84626,-54.09684
2023-05-28 21:19:00+00:00,269.588,5.7,13.44,47.84626,-54.09684
2023-05-28 21:29:00+00:00,267.7914,5.7,13.44,47.84626,-54.09684
2023-05-28 21:39:00+00:00,267.3931,5.7,13.44,47.84626,-54.09684
2023-05-28 21:49:00+00:00,260.3314,5.7,13.44,47.84626,-54.09684
2023-05-28 21:59:00+00:00,256.6547,5.7,13.44,47.84626,-54.09684
2023-05-28 22:09:00+00:00,254.8197,5.7,13.44,47.84626,-54.09684
2023-05-28 22:19:00+00:00,250.5247,5.7,13.13,47.84626,-54.09684
2023-05-28 22:29:00+00:00,246.4564,5.7,13.13,47.84626,-54.09684
2023-05-28 22:39:00+00:00,245.8664,5.7,13.13,47.84626,-54.09684
2023-05-28 22:49:00+00:00,243.3048,5.7,13.13,47.84626,-54.09684
2023-05-28 22:59:00+00:00,238.1998,5.7,13.13,47.84626,-54.09684
2023-05-28 23:09:00+00:00,237.5264,5.7,13.13,47.84626,-54.09684
2023-05-28 23:19:00+00:00,238.6481,5.7,12.89,47.84626,-54.09684
2023-05-28 23:29:00+00:00,235.2481,5.7,12.89,47.84626,-54.09684
2023-05-28 23:39:00+00:00,232.3164,5.76,12.89,47.84626,-54.09684
2023-05-28 23:49:00+00:00,235.1431,5.79,12.89,47.84626,-54.09684
2023-05-28 23:59:00+00:00,235.4415,5.8,12.89,47.84626,-54.09684
